Location: Monfort
(47.1967°N, 0.2115°W)
Time: 04:40:04
(UTC+00:00)

Cosmos 2219 - Pass Details

Date: 24 October 2020
Orbit: 832 x 862 km, 71.1° (Epoch: 01 December)

Event Time Altitude Azimuth Distance (km) Brightness Sun altitude
Rises 19:10:46 0° 329° (NNW) 3,445 6.9 -23.4°
Reaches altitude 10° 19:13:16 10° 326° (NW) 2,506 6.2 -23.8°
Maximum altitude 19:18:53 56° 250° (WSW) 1,019 3.8 -24.8°
Enters shadow 19:23:18 17° 176° (S) 2,066 5.1 -25.5°
